[[{"header":{"parameterUnit":"m.s-1","parameterCategory":1,"la1":30.2991,"la2":30.254,"lo1":-89.0895,"lo2":-89.0444,"dy":0.0017,"dx":0.0017,"nx":28,"ny":28,"refTime":"2023-10-20T03:00:00:Z","depth":0,"parameterNumber":2,"parameterNumberName":"U-component_of_WINDS"},"data":[0,0,0,0,0,0,0,0,0,0,0,0,0,0,0,0,0,0,0,0,0,0,0,0,0,0,0,0,0,0,0,0,0,0,0,0,0,0,0,0,0,0,0,0,0,0,0,0,0,0,0,0,0,0,0,0,0,0,1.9256,1.9257,0,1.9356,1.9357,1.9358,1.9326,1.9323,1.9321,1.9319,1.9424,1.9429,1.9434,0,0,0,0,0,0,0,0,0,0,0,0,0,1.904,1.9045,1.9256,1.9257,1.9258,1.9355,1.9357,1.9358,1.9326,1.9323,1.9321,1.9318,1.9423,1.9428,1.9434,0,0,0,0,0,0,0,0,0,0,0,0,0,1.9137,1.9046,1.9256,1.9254,1.9255,1.9355,1.9357,1.9359,1.9326,1.9323,1.932,1.9317,1.9421,1.9428,1.9435,1.9544,0,0,1.9457,1.946,0,0,0,0,0,0,0,0,1.9131,1.9145,1.9253,1.9254,1.9255,1.9325,1.9319,1.9421,1.9327,1.9299,1.9319,1.9315,1.9394,1.9403,1.9429,1.9549,1.9553,1.9457,1.9462,1.9465,1.9467,0,0,0,0,0,0,0,1.9125,1.914,1.9295,1.9254,1.9256,1.9249,1.9259,1.9338,1.9364,1.9301,1.9299,1.9311,1.9394,1.9422,1.9431,1.9555,1.9457,1.9464,1.9468,1.9471,1.9771,1.9774,0,0,0,0,0,0,1.9117,1.9135,1.9292,1.9298,1.9184,1.9256,1.9267,1.9306,1.9363,1.9368,1.9314,1.931,1.9411,1.9423,1.9435,1.9567,1.9465,1.9472,1.9476,1.9767,1.9772,1.9776,0,0,0,0,0,0,1.9112,1.9131,1.9288,1.9216,1.9235,1.9263,1.9307,1.9309,1.9337,1.9372,1.9377,1.9338,1.9409,1.9425,1.9517,1.957,1.9475,1.9481,1.9763,1.9769,1.9774,1.9832,0,0,0,0,0,0,1.9106,1.913,1.917,1.9217,1.9239,1.9368,1.931,1.9314,1.935,1.9345,1.9396,1.9401,1.9408,1.9507,1.9524,1.9578,1.9487,1.9758,1.9766,1.9772,1.9826,1.9839,1.985,0,0,0,0,0,1.9099,1.9183,1.9173,1.9192,1.9291,1.9371,1.9384,1.9389,1.9354,1.9396,1.9419,1.94,1.9562,1.9516,1.9536,1.9593,1.9755,1.9763,1.9771,1.982,1.9836,1.985,0,0,0,0,0,0,1.9143,1.9189,1.9178,1.928,1.9322,1.9365,1.9418,1.9406,1.9459,1.9452,1.9457,1.9469,1.9565,1.9588,1.9537,1.9703,1.9653,1.9666,1.9684,1.9699,1.9711,1.9704,1.9493,0,0,0,0,0,1.9164,1.9224,1.9262,1.9349,1.937,1.9391,1.9426,1.9426,1.947,1.9488,1.9517,1.9561,1.9622,1.9662,1.972,1.9829,1.984,1.9878,1.9891,1.99,1.9911,1.9972,1.999,1.9803,1.9803,1.9802,0,0,1.9209,1.9242,1.928,1.9358,1.9391,1.9454,1.9406,1.9475,1.9522,1.9498,1.9587,1.9611,1.966,1.9762,1.9808,1.9785,1.9966,1.9911,1.9919,1.9924,1.9983,2.0,2.0016,1.9808,1.9807,1.9806,0,0,1.9324,1.9355,1.943,1.9464,1.9513,1.9527,1.9545,1.9591,1.9605,1.9695,1.9679,1.9736,1.984,1.9877,1.9909,2.0039,2.0024,2.0058,2.0123,2.0182,2.0197,2.021,2.0257,2.0274,2.0069,2.0069,2.0069,0,1.9374,1.9468,1.9471,1.9542,1.9577,1.9558,1.9636,1.9669,1.9735,1.9761,1.9733,1.9865,1.9897,2.0007,2.0039,2.0065,2.0088,2.0052,2.0194,2.0207,2.022,2.0265,2.0283,2.0073,2.0072,2.0072,2.0071,0,1.9528,1.9593,1.9649,1.9713,1.9755,1.9828,1.9844,1.9886,1.9884,1.99,1.9993,2.0031,2.0096,2.0123,2.0121,2.0234,2.0218,2.0192,2.0143,2.0241,2.0284,2.0302,2.0078,2.0077,2.0075,2.0075,0,0,1.9672,1.9738,1.9758,1.9787,1.9841,1.9893,1.9966,2.003,2.0067,2.0114,2.0176,2.0266,2.0243,2.028,2.0282,2.0334,2.0436,2.0303,2.0304,2.0327,2.0565,2.0584,2.0604,2.0427,2.043,2.0433,2.0561,0,1.9792,1.992,1.9926,2.0043,2.0105,2.0088,2.0153,2.0194,2.0212,2.0268,2.0288,2.0352,2.0316,2.0338,2.0389,2.0413,2.0484,2.0404,2.0487,2.049,2.0475,2.0626,2.0646,2.0765,2.0577,2.058,2.0582,0,1.9948,1.9999,2.0123,2.0169,2.0195,2.0253,2.0312,2.0366,2.0412,2.0422,2.0464,2.0459,2.0536,2.0484,2.0591,2.0536,2.0571,2.0588,2.0593,2.0601,2.0542,2.0639,2.0803,2.0821,2.0609,2.0606,2.0605,0,2.0042,2.0142,2.0229,2.0255,2.0311,2.0352,2.0377,2.0421,2.0459,2.0512,2.0537,2.0598,2.0632,2.068,2.0693,2.0654,2.0801,2.0749,2.0812,2.0812,2.0844,2.0842,2.1016,2.0865,2.0865,2.0864,2.0864,0,2.0175,2.0251,2.0272,2.0326,2.0411,2.0418,2.0503,2.0526,2.0565,2.0624,2.0614,2.067,2.0683,2.0742,2.0752,2.084,2.0855,2.0866,2.0868,2.0868,2.0866,2.089,2.0883,2.0869,2.0868,2.0867,2.0866,0,2.0294,2.0311,2.0405,2.045,2.0464,2.0525,2.0565,2.0617,2.0634,2.0709,2.0727,2.0755,2.0824,2.0841,2.0923,2.093,2.1035,2.1028,2.1019,2.1018,2.108,2.1075,2.1277,2.1305,2.1135,2.1136,2.1138,0,2.0378,2.0436,2.0488,2.0527,2.0554,2.0616,2.0655,2.0665,2.0706,2.0765,2.0811,2.0878,2.0933,2.1044,2.1072,2.1135,2.1131,2.1198,2.1141,2.1139,2.1133,2.113,2.1137,2.1209,2.121,2.1212,2.1213,0,2.0525,2.0531,2.0587,2.0648,2.0695,2.0743,2.0788,2.0821,2.0837,2.0885,2.0955,2.0997,2.1081,2.1149,2.1213,2.1241,2.1231,2.1231,2.1249,2.1249,2.1241,2.1247,2.1049,2.1226,2.1225,2.1224,2.1223,2.1223,2.0629,2.0681,2.0726,2.079,2.0826,2.0869,2.0921,2.0945,2.1003,2.1072,2.1074,2.1151,2.1198,2.1283,2.1315,2.1376,2.1356,2.1382,2.1388,2.1395,2.1401,2.1231,2.1388,2.1387,2.1387,2.1387,2.1386,0,2.0777,2.0805,2.0864,2.0929,2.0979,2.0964,2.1015,2.1059,2.1126,2.1171,2.1225,2.1306,2.1372,2.1406,2.1472,2.1515,2.1512,2.1532,2.1529,2.1536,2.1414,2.1393,2.1533,2.1533,2.1533,2.1533,2.1533,2.1533,2.0859,2.0946,2.0958,2.1064,2.1092,2.1166,2.1197,2.1237,2.1273,2.1364,2.1419,2.144,2.1481,2.155,2.1611,2.162,2.1645,2.1668,2.1674,2.1559,2.1545,2.153,2.151,2.1673,2.1673,2.1791,2.1792,2.1793]},{"header":{"parameterUnit":"m.s-1","parameterCategory":1,"la1":30.2991,"la2":30.254,"lo1":-89.0895,"lo2":-89.0444,"dy":0.0017,"dx":0.0017,"nx":28,"ny":28,"refTime":"2023-10-20T03:00:00:Z","depth":0,"parameterNumber":3,"parameterNumberName":"V-component_of_WINDS"},"data":[0,0,0,0,0,0,0,0,0,0,0,0,0,0,0,0,0,0,0,0,0,0,0,0,0,0,0,0,0,0,0,0,0,0,0,0,0,0,0,0,0,0,0,0,0,0,0,0,0,0,0,0,0,0,0,0,0,0,3.718,3.718,0,3.72,3.72,3.72,3.7142,3.714,3.7139,3.7137,3.7156,3.7158,3.716,0,0,0,0,0,0,0,0,0,0,0,0,0,3.709,3.7092,3.718,3.718,3.718,3.72,3.72,3.72,3.7142,3.714,3.7138,3.7136,3.7155,3.7157,3.716,0,0,0,0,0,0,0,0,0,0,0,0,0,3.7121,3.7093,3.718,3.7154,3.7152,3.72,3.72,3.72,3.7143,3.714,3.7137,3.7135,3.7154,3.7157,3.716,3.7234,0,0,3.717,3.7172,0,0,0,0,0,0,0,0,3.712,3.7125,3.7157,3.7156,3.7153,3.7166,3.7175,3.7212,3.7144,3.7146,3.7137,3.7134,3.7161,3.7163,3.7173,3.7235,3.7236,3.717,3.7172,3.7174,3.7175,0,0,0,0,0,0,0,3.7118,3.7124,3.7187,3.7158,3.7155,3.7141,3.7142,3.7182,3.7168,3.7146,3.7141,3.7145,3.7159,3.717,3.7173,3.7236,3.717,3.7173,3.7175,3.7177,3.7361,3.7363,0,0,0,0,0,0,3.7119,3.7122,3.7187,3.7188,3.713,3.7145,3.7146,3.7164,3.7168,3.7166,3.7147,3.7142,3.7166,3.7169,3.7173,3.7261,3.7174,3.7177,3.7179,3.7358,3.7361,3.7364,0,0,0,0,0,0,3.7117,3.7125,3.7186,3.7154,3.7161,3.7149,3.717,3.7166,3.7177,3.7169,3.7166,3.7161,3.7164,3.7169,3.722,3.7261,3.7178,3.7181,3.7354,3.7359,3.7363,3.7436,0,0,0,0,0,0,3.7115,3.7125,3.7153,3.7155,3.7163,3.7232,3.7172,3.7169,3.7183,3.7176,3.7181,3.7179,3.7162,3.7215,3.7223,3.7264,3.7184,3.735,3.7356,3.7361,3.743,3.7442,3.7453,0,0,0,0,0,3.7112,3.7172,3.7155,3.7163,3.7197,3.7235,3.7239,3.7219,3.7186,3.7214,3.7209,3.7179,3.7255,3.7221,3.7229,3.7272,3.7348,3.7355,3.7361,3.7425,3.744,3.7453,0,0,0,0,0,0,3.7173,3.7172,3.7152,3.7215,3.7226,3.7225,3.726,3.7236,3.7256,3.7249,3.7223,3.7224,3.728,3.7281,3.7243,3.7344,3.7296,3.7304,3.7341,3.7356,3.7367,3.7366,3.7186,0,0,0,0,0,3.7195,3.7226,3.7222,3.7278,3.7284,3.7271,3.7287,3.7271,3.7281,3.7285,3.7283,3.7294,3.732,3.7338,3.7361,3.743,3.743,3.7463,3.7475,3.7484,3.7492,3.753,3.7544,3.7386,3.7386,3.7386,0,0,3.7238,3.7241,3.7262,3.729,3.7297,3.733,3.7275,3.7312,3.7336,3.729,3.7338,3.7338,3.7348,3.7408,3.7435,3.741,3.7536,3.7493,3.75,3.7503,3.7538,3.7553,3.7566,3.7391,3.739,3.7389,0,0,3.7334,3.7339,3.7387,3.7395,3.7406,3.7397,3.7409,3.7412,3.7411,3.7459,3.7426,3.7454,3.7499,3.7508,3.7519,3.7621,3.7594,3.7629,3.769,3.7727,3.7739,3.775,3.7788,3.7801,3.7637,3.7637,3.7637,0,3.7386,3.7435,3.7414,3.7454,3.7467,3.7429,3.7477,3.7485,3.7503,3.7514,3.7487,3.7545,3.7548,3.7611,3.7636,3.7645,3.7658,3.7628,3.7739,3.775,3.776,3.7795,3.7809,3.7641,3.7641,3.764,3.764,0,3.7499,3.7534,3.7571,3.7591,3.7609,3.7652,3.7638,3.7659,3.7642,3.7636,3.7687,3.769,3.7715,3.7728,3.7711,3.7789,3.7774,3.7744,3.7695,3.778,3.7813,3.7826,3.7648,3.7646,3.7645,3.7644,0,0,3.7633,3.7643,3.7657,3.7666,3.7676,3.7702,3.7745,3.777,3.7789,3.7803,3.7838,3.7879,3.7851,3.7863,3.7847,3.788,3.7962,3.7845,3.7845,3.7868,3.8049,3.8073,3.8089,3.7944,3.7946,3.7948,3.8049,0,3.7729,3.7802,3.7786,3.7858,3.789,3.7855,3.7892,3.7902,3.7899,3.7925,3.7921,3.7951,3.7911,3.7919,3.7949,3.7945,3.7998,3.7938,3.7977,3.7978,3.7976,3.8106,3.813,3.8225,3.8061,3.8064,3.8065,0,3.7849,3.787,3.7947,3.7954,3.7966,3.8,3.8023,3.8049,3.806,3.8055,3.807,3.8048,3.809,3.8042,3.81,3.8059,3.8074,3.8075,3.8078,3.8082,3.8027,3.8113,3.8254,3.8269,3.8085,3.8083,3.8082,0,3.7941,3.7988,3.804,3.8049,3.8058,3.8083,3.8088,3.8096,3.8113,3.8133,3.8144,3.8168,3.8181,3.82,3.8186,3.8151,3.8247,3.8196,3.8244,3.8245,3.8266,3.8265,3.8413,3.8275,3.8275,3.8275,3.8274,0,3.8049,3.8098,3.8081,3.8114,3.8167,3.8147,3.8201,3.8201,3.821,3.8242,3.8212,3.8242,3.8221,3.825,3.8238,3.8289,3.8295,3.8293,3.8289,3.8296,3.8296,3.8306,3.8299,3.8278,3.8277,3.8277,3.8276,0,3.816,3.8151,3.8206,3.8211,3.8214,3.8253,3.8257,3.8287,3.8282,3.8323,3.8331,3.8323,3.8355,3.8343,3.8376,3.8369,3.8435,3.8422,3.8431,3.8428,3.8477,3.8473,3.8636,3.8657,3.8506,3.8507,3.8508,0,3.823,3.8267,3.8277,3.8297,3.8304,3.8336,3.8354,3.8336,3.8356,3.8373,3.8401,3.8432,3.8455,3.8508,3.8505,3.8531,3.852,3.8575,3.8523,3.853,3.8522,3.852,3.8524,3.8586,3.8587,3.8589,3.859,0,3.8356,3.8351,3.8378,3.8404,3.8426,3.8446,3.8463,3.848,3.8464,3.8488,3.8521,3.8539,3.8575,3.8606,3.863,3.8634,3.861,3.8606,3.8619,3.8626,3.8631,3.863,3.846,3.8603,3.8601,3.86,3.86,3.8599,3.8449,3.8481,3.8494,3.8525,3.8537,3.8554,3.8583,3.8582,3.861,3.8639,3.8627,3.8666,3.8678,3.8708,3.8716,3.8747,3.8725,3.8743,3.8748,3.8753,3.876,3.8626,3.8751,3.875,3.875,3.875,3.8749,0,3.8574,3.8581,3.8611,3.8636,3.8662,3.8638,3.8656,3.8678,3.8714,3.8727,3.8751,3.8791,3.8821,3.8821,3.8849,3.8874,3.8863,3.8882,3.888,3.8882,3.8777,3.8764,3.889,3.889,3.889,3.889,3.889,3.889,3.8643,3.8696,3.8692,3.8751,3.8757,3.8796,3.8809,3.8824,3.8835,3.8881,3.8907,3.8907,3.8916,3.8945,3.8971,3.8971,3.8983,3.9006,3.9001,3.8903,3.8889,3.8876,3.8863,3.9008,3.9008,3.9104,3.9104,3.9105]}]]